[[{"header":{"parameterUnit":"m.s-1","parameterCategory":1,"la1":30.2991,"la2":30.254,"lo1":-89.0895,"lo2":-89.0444,"dy":0.0017,"dx":0.0017,"nx":28,"ny":28,"refTime":"2024-04-05T03:00:00:Z","depth":0,"parameterNumber":2,"parameterNumberName":"U-component_of_WINDS"},"data":[0,0,0,0,0,0,0,0,0,0,0,0,0,0,0,0,0,0,0,0,0,0,0,0,0,0,0,0,0,0,0,0,0,0,0,0,0,0,0,0,0,0,0,0,0,0,0,0,0,0,0,0,0,0,0,0,0,0,4.6067,4.6068,0,4.6186,4.6187,4.6188,4.6111,4.6107,4.6104,4.61,4.6226,4.6232,4.6239,0,0,0,0,0,0,0,0,0,0,0,0,0,4.5779,4.5785,4.6067,4.6068,4.607,4.6185,4.6187,4.6189,4.6112,4.6107,4.6103,4.6099,4.6224,4.6232,4.624,0,0,0,0,0,0,0,0,0,0,0,0,0,4.5902,4.5787,4.6067,4.6045,4.6044,4.6185,4.6187,4.6189,4.6112,4.6107,4.6102,4.6097,4.6221,4.6231,4.6241,4.641,0,0,4.6271,4.6276,0,0,0,0,0,0,0,0,4.5895,4.5913,4.6047,4.6047,4.6046,4.6128,4.6132,4.6263,4.6114,4.6087,4.61,4.6094,4.6198,4.6209,4.6244,4.6416,4.6421,4.6272,4.6278,4.6283,4.6285,0,0,0,0,0,0,0,4.5887,4.5907,4.6114,4.6049,4.6049,4.6032,4.6043,4.6156,4.6171,4.6089,4.6083,4.6098,4.6197,4.6234,4.6246,4.6423,4.6272,4.6281,4.6287,4.6291,4.6745,4.6751,0,0,0,0,0,0,4.5879,4.59,4.611,4.6118,4.5956,4.6041,4.6054,4.6107,4.617,4.6174,4.6103,4.6094,4.622,4.6234,4.625,4.6455,4.6283,4.6292,4.6298,4.6739,4.6746,4.6753,0,0,0,0,0,0,4.5873,4.5899,4.6105,4.6008,4.6033,4.6052,4.6112,4.6112,4.615,4.618,4.6183,4.6138,4.6216,4.6236,4.6372,4.6458,4.6296,4.6306,4.6732,4.6741,4.675,4.6865,0,0,0,0,0,0,4.5865,4.5897,4.596,4.601,4.6038,4.6223,4.6118,4.6119,4.6167,4.6157,4.6214,4.6218,4.6213,4.6357,4.6382,4.6469,4.6313,4.6724,4.6736,4.6747,4.6854,4.6877,4.6897,0,0,0,0,0,4.5855,4.5988,4.5964,4.5989,4.6117,4.6228,4.6245,4.6235,4.6174,4.6239,4.6259,4.6217,4.6445,4.6372,4.6399,4.6491,4.6719,4.6733,4.6746,4.6844,4.6873,4.6897,0,0,0,0,0,0,4.5949,4.5994,4.5967,4.6119,4.6171,4.6215,4.6296,4.6265,4.6336,4.6324,4.631,4.6324,4.6466,4.6492,4.6409,4.666,4.6572,4.6592,4.6638,4.6665,4.6686,4.6678,4.6322,0,0,0,0,0,4.5987,4.6072,4.6107,4.6238,4.6265,4.6277,4.6325,4.6313,4.6366,4.6388,4.6418,4.6472,4.6556,4.6612,4.6691,4.6857,4.687,4.6934,4.6956,4.6973,4.6991,4.7084,4.7114,4.6798,4.6797,4.6797,0,0,4.6067,4.6102,4.6156,4.6258,4.6296,4.6387,4.6295,4.6394,4.6462,4.6403,4.6533,4.6558,4.6618,4.677,4.6839,4.6796,4.7081,4.6991,4.7005,4.7013,4.7101,4.7131,4.7158,4.6807,4.6805,4.6804,0,0,4.6259,4.6293,4.6407,4.6448,4.6507,4.6514,4.6542,4.6592,4.6605,4.6736,4.6694,4.6776,4.692,4.6966,4.7008,4.7221,4.7186,4.7247,4.7361,4.7452,4.7477,4.7499,4.7577,4.7605,4.7264,4.7265,4.7265,0,4.6351,4.6484,4.647,4.6573,4.662,4.6571,4.6688,4.6729,4.6811,4.6846,4.6796,4.6979,4.7016,4.718,4.7232,4.7267,4.73,4.724,4.7474,4.7496,4.7516,4.7591,4.762,4.7272,4.7271,4.727,4.7269,0,4.6596,4.6689,4.6775,4.6855,4.6912,4.7022,4.7027,4.7087,4.7071,4.7085,4.722,4.7263,4.7351,4.7389,4.7374,4.7552,4.7524,4.7475,4.7387,4.7554,4.7624,4.7652,4.7282,4.7279,4.7277,4.7276,0,0,4.6849,4.6922,4.6954,4.6991,4.7054,4.7127,4.7236,4.7322,4.7374,4.7434,4.7527,4.7652,4.7607,4.7655,4.7646,4.7726,4.7895,4.7667,4.7668,4.771,4.8097,4.8135,4.8168,4.7872,4.7878,4.7882,4.8093,0,4.7046,4.7234,4.7226,4.7404,4.7492,4.7447,4.7543,4.7593,4.761,4.7688,4.7706,4.7796,4.7729,4.7758,4.7835,4.7858,4.7973,4.7843,4.7961,4.7965,4.7948,4.8204,4.8244,4.8441,4.812,4.8125,4.8128,0,4.73,4.7369,4.7555,4.7608,4.7644,4.773,4.7809,4.7884,4.7942,4.7948,4.8004,4.7982,4.8096,4.8004,4.8162,4.8074,4.8122,4.8141,4.8148,4.816,4.8057,4.8225,4.8504,4.8534,4.8171,4.8167,4.8164,0,4.7469,4.7608,4.7737,4.7771,4.7835,4.7897,4.7927,4.7979,4.8032,4.8102,4.8137,4.822,4.8266,4.8332,4.8334,4.8267,4.8495,4.8403,4.8506,4.8506,4.8556,4.8553,4.8848,4.8585,4.8585,4.8584,4.8583,0,4.7691,4.7807,4.7814,4.7895,4.8025,4.8016,4.8145,4.8169,4.8217,4.8303,4.827,4.8351,4.8349,4.8433,4.8437,4.8569,4.8589,4.8599,4.8599,4.8603,4.8602,4.8635,4.8622,4.8592,4.859,4.8589,4.8587,0,4.7902,4.791,4.805,4.81,4.8115,4.8209,4.8253,4.833,4.8344,4.8453,4.8479,4.8501,4.8599,4.8608,4.8721,4.8723,4.8884,4.8868,4.8864,4.8862,4.8965,4.8956,4.9293,4.9338,4.9044,4.9046,4.9049,0,4.8043,4.8131,4.8191,4.8246,4.828,4.8368,4.8422,4.8418,4.8476,4.855,4.862,4.8714,4.8789,4.8948,4.8975,4.9063,4.905,4.9162,4.9063,4.9065,4.9054,4.905,4.906,4.9182,4.9185,4.9188,4.919,0,4.8294,4.8295,4.8373,4.8456,4.8521,4.8585,4.8645,4.8693,4.8696,4.8764,4.8863,4.8921,4.9037,4.9133,4.9219,4.9252,4.9224,4.9221,4.925,4.9255,4.925,4.9257,4.8918,4.9213,4.9211,4.9209,4.9208,4.9207,4.8476,4.8554,4.8609,4.8698,4.8743,4.8801,4.8877,4.8901,4.8983,4.9076,4.9069,4.918,4.9239,4.9351,4.9391,4.9479,4.9442,4.9483,4.9494,4.9504,4.9516,4.9235,4.9495,4.9494,4.9494,4.9493,4.9493,0,4.8727,4.8761,4.8844,4.8929,4.9001,4.8966,4.9031,4.9094,4.9191,4.9248,4.9323,4.9438,4.9531,4.9567,4.9658,4.9722,4.9712,4.9746,4.9742,4.9751,4.9543,4.951,4.9754,4.9754,4.9754,4.9754,4.9754,4.9753,4.8867,4.8997,4.9005,4.9159,4.9192,4.9299,4.934,4.9394,4.9439,4.9569,4.9646,4.9668,4.9718,4.9813,4.9898,4.9906,4.9942,4.9984,4.9987,4.9792,4.9765,4.974,4.9709,4.9991,4.9991,5.0188,5.019,5.0191]},{"header":{"parameterUnit":"m.s-1","parameterCategory":1,"la1":30.2991,"la2":30.254,"lo1":-89.0895,"lo2":-89.0444,"dy":0.0017,"dx":0.0017,"nx":28,"ny":28,"refTime":"2024-04-05T03:00:00:Z","depth":0,"parameterNumber":3,"parameterNumberName":"V-component_of_WINDS"},"data":[0,0,0,0,0,0,0,0,0,0,0,0,0,0,0,0,0,0,0,0,0,0,0,0,0,0,0,0,0,0,0,0,0,0,0,0,0,0,0,0,0,0,0,0,0,0,0,0,0,0,0,0,0,0,0,0,0,0,0.0577,0.0578,0,0.0639,0.064,0.064,0.0616,0.0614,0.0613,0.0611,0.0681,0.0684,0.0687,0,0,0,0,0,0,0,0,0,0,0,0,0,0.0443,0.0445,0.0577,0.0578,0.0579,0.0639,0.064,0.0641,0.0616,0.0614,0.0612,0.061,0.068,0.0684,0.0687,0,0,0,0,0,0,0,0,0,0,0,0,0,0.0503,0.0446,0.0577,0.0573,0.0574,0.0639,0.064,0.0641,0.0616,0.0614,0.0612,0.061,0.0678,0.0683,0.0688,0.0762,0,0,0.0703,0.0705,0,0,0,0,0,0,0,0,0.0499,0.0508,0.0573,0.0574,0.0574,0.0617,0.0618,0.0682,0.0617,0.06,0.0611,0.0609,0.0662,0.0668,0.0685,0.0765,0.0768,0.0703,0.0706,0.0708,0.071,0,0,0,0,0,0,0,0.0495,0.0505,0.0602,0.0574,0.0575,0.057,0.0576,0.063,0.0643,0.0601,0.06,0.0607,0.0662,0.068,0.0686,0.0769,0.0703,0.0707,0.071,0.0712,0.0915,0.0917,0,0,0,0,0,0,0.049,0.0501,0.06,0.0604,0.053,0.0575,0.0581,0.0606,0.0642,0.0645,0.0609,0.0606,0.0673,0.068,0.0688,0.0778,0.0708,0.0713,0.0715,0.0912,0.0915,0.0918,0,0,0,0,0,0,0.0487,0.0499,0.0597,0.0552,0.0564,0.0579,0.0607,0.0608,0.0626,0.0648,0.0651,0.0625,0.0671,0.0682,0.0744,0.078,0.0715,0.0719,0.0909,0.0913,0.0917,0.0957,0,0,0,0,0,0,0.0484,0.0498,0.0525,0.0553,0.0567,0.065,0.0609,0.0611,0.0634,0.063,0.0663,0.0667,0.067,0.0737,0.0748,0.0785,0.0723,0.0906,0.0911,0.0916,0.0953,0.0962,0.097,0,0,0,0,0,0.0479,0.0535,0.0527,0.0539,0.06,0.0652,0.066,0.0661,0.0637,0.0665,0.0679,0.0666,0.0774,0.0743,0.0756,0.0795,0.0904,0.091,0.0915,0.0949,0.096,0.0969,0,0,0,0,0,0,0.0514,0.0539,0.053,0.0596,0.0622,0.0648,0.0683,0.0673,0.0708,0.0703,0.0705,0.0713,0.0777,0.0792,0.0758,0.0869,0.0836,0.0844,0.0857,0.0867,0.0876,0.0871,0.0727,0,0,0,0,0,0.0529,0.0567,0.0587,0.0645,0.0658,0.0668,0.0691,0.0689,0.0717,0.0728,0.0746,0.0775,0.0815,0.0842,0.0881,0.0955,0.0962,0.0988,0.0996,0.1003,0.1011,0.1052,0.1064,0.0936,0.0936,0.0936,0,0,0.0561,0.058,0.0604,0.0652,0.0672,0.0712,0.0678,0.0722,0.0753,0.0735,0.0794,0.0809,0.0842,0.091,0.0941,0.0925,0.1047,0.101,0.1016,0.102,0.1059,0.1071,0.1081,0.094,0.0939,0.0939,0,0,0.0641,0.0658,0.0707,0.0728,0.0757,0.0764,0.0776,0.0803,0.0811,0.087,0.0857,0.0895,0.0965,0.0988,0.1009,0.1098,0.1087,0.111,0.1155,0.1195,0.1205,0.1213,0.1246,0.1257,0.1118,0.1118,0.1118,0,0.0678,0.0737,0.0735,0.078,0.0802,0.0786,0.0837,0.0857,0.0899,0.0915,0.0896,0.0982,0.1003,0.1077,0.1098,0.1116,0.113,0.1107,0.1203,0.1212,0.122,0.1251,0.1263,0.112,0.112,0.112,0.112,0,0.0781,0.0823,0.0859,0.0897,0.0924,0.0972,0.0978,0.1006,0.1002,0.1011,0.1072,0.1096,0.1139,0.1156,0.1154,0.123,0.1219,0.1202,0.1168,0.1235,0.1264,0.1275,0.1124,0.1123,0.1122,0.1122,0,0,0.0885,0.092,0.0934,0.0951,0.0982,0.1015,0.1063,0.1103,0.1127,0.1156,0.1197,0.1256,0.124,0.1264,0.1264,0.1299,0.1368,0.1277,0.1278,0.1294,0.1454,0.1467,0.1481,0.1361,0.1363,0.1365,0.1451,0,0.0967,0.1049,0.1048,0.1125,0.1163,0.1149,0.1191,0.1215,0.1225,0.1261,0.1273,0.1315,0.129,0.1304,0.1338,0.1352,0.14,0.1346,0.1401,0.1403,0.1393,0.1496,0.151,0.159,0.1463,0.1465,0.1466,0,0.1073,0.1104,0.1184,0.1209,0.1226,0.1263,0.13,0.1334,0.1362,0.1367,0.1393,0.1388,0.1439,0.1403,0.1474,0.1437,0.1459,0.147,0.1473,0.1479,0.1439,0.1504,0.1616,0.1628,0.1484,0.1482,0.1481,0,0.1141,0.1203,0.1258,0.1274,0.1305,0.1331,0.1346,0.1372,0.1396,0.1429,0.1445,0.1484,0.1506,0.1537,0.1543,0.1517,0.1614,0.1579,0.1621,0.1621,0.1643,0.1641,0.176,0.1657,0.1657,0.1656,0.1656,0,0.1233,0.1283,0.1289,0.1323,0.1379,0.1379,0.1434,0.1447,0.147,0.1508,0.1498,0.1534,0.154,0.1578,0.1584,0.1642,0.1652,0.1658,0.1659,0.1659,0.1658,0.1674,0.1669,0.166,0.1659,0.1658,0.1658,0,0.1318,0.1324,0.1384,0.1408,0.1416,0.1455,0.1477,0.1511,0.1519,0.1567,0.1579,0.1593,0.1637,0.1646,0.17,0.1703,0.1772,0.1768,0.1762,0.1762,0.1803,0.1799,0.1936,0.1955,0.184,0.1841,0.1842,0,0.1376,0.1414,0.1442,0.1465,0.1481,0.1519,0.1543,0.1545,0.1571,0.1606,0.1636,0.1678,0.1712,0.1784,0.1801,0.1841,0.1838,0.1883,0.1844,0.1843,0.1839,0.1837,0.1841,0.1891,0.1892,0.1893,0.1894,0,0.1479,0.148,0.1514,0.155,0.1578,0.1607,0.1634,0.1654,0.166,0.169,0.1734,0.176,0.1813,0.1856,0.1897,0.1914,0.1906,0.1906,0.1918,0.1918,0.1913,0.1917,0.1783,0.1903,0.1902,0.1901,0.1901,0.19,0.1553,0.1585,0.161,0.1648,0.1668,0.1694,0.1726,0.1739,0.1775,0.1817,0.1816,0.1865,0.1893,0.1946,0.1966,0.2005,0.1991,0.2008,0.2013,0.2017,0.2021,0.1907,0.2013,0.2012,0.2012,0.2012,0.2012,0,0.1655,0.1669,0.1705,0.1742,0.1773,0.176,0.179,0.1817,0.1859,0.1885,0.1918,0.1969,0.2011,0.203,0.2072,0.21,0.2097,0.2111,0.2109,0.2113,0.2031,0.2016,0.2112,0.2112,0.2112,0.2112,0.2112,0.2112,0.1711,0.1766,0.177,0.1835,0.185,0.1896,0.1914,0.1938,0.1959,0.2015,0.2049,0.2061,0.2085,0.2128,0.2166,0.2171,0.2187,0.2203,0.2206,0.2129,0.2119,0.2109,0.2095,0.2206,0.2206,0.2285,0.2286,0.2286]}]]